Dewpoint
49 48 48 48 49 50 50 51 51 51 50 53 53 53 57 60 59 54 48 46 44 45 41 29 21 22 24 27 29 26 22 19 19 19 18 18 16 20 22 19 20 22 25 28 31
49 49 48 48 49 49 50 50 50 51 51 50 53 53 56 59 56 50 49 44 43 44 30 22 20 22 22 25 29 26 20 22 23 18 18 18 17 19 19 18 19 22 26 30 31
48 48 48 48 48 49 49 50 50 51 51 52 52 52 55 58 49 37 45 42 42 42 29 22 20 19 20 23 27 26 23 25 21 19 17 17 16 16 17 18 19 20 25 29 30
47 47 47 47 48 48 49 49 50 50 50 53 52 52 54 53 34 37 41 39 41 37 23 21 22 19 21 22 24 23 24 24 24 20 19 19 20 20 20 20 22 20 27 28 29
49 48 47 47 47 47 48 48 49 49 49 52 53 52 53 43 41 41 39 37 39 31 21 24 24 24 24 25 25 23 23 24 22 22 21 22 21 21 22 23 23 22 22 28 29
51 51 50 49 48 46 47 49 49 49 48 50 54 53 49 38 37 33 31 28 25 25 19 25 27 28 24 25 23 23 22 22 21 21 20 19 20 21 21 25 25 25 23 24 27
46 47 48 50 50 49 46 46 48 50 49 51 54 50 44 39 36 27 22 20 20 19 20 30 28 26 28 27 28 23 23 24 25 24 21 28 29 29 29 30 30 29 28 26 26
45 46 47 48 49 49 49 47 45 51 50 52 55 46 39 37 39 36 23 22 18 20 25 29 29 29 29 29 28 26 26 24 27 26 30 30 27 27 30 30 29 28 28 28 29
41 43 46 46 45 47 48 49 45 48 48 54 48 46 37 39 36 36 31 22 20 25 28 29 31 30 30 28 26 26 24 25 26 30 28 27 25 25 24 23 23 23 21 23 25
41 44 44 45 45 45 47 47 43 43 47 50 48 39 39 34 33 33 33 25 23 26 27 27 29 29 30 29 25 25 26 27 24 27 27 26 24 24 22 21 20 20 22 29 29
43 44 44 44 46 45 46 42 31 37 45 37 37 36 34 27 23 25 27 24 24 26 27 28 27 27 27 28 29 28 26 23 21 24 22 22 23 23 24 22 22 23 23 30 31
43 43 44 44 44 45 45 38 35 42 35 33 40 37 36 28 23 23 23 22 25 26 29 28 26 27 26 25 26 25 24 22 23 19 18 17 17 17 19 25 27 28 31 31 31
42 44 44 44 45 43 36 39 46 45 35 30 29 27 26 29 28 27 24 26 27 27 28 25 23 23 22 22 22 23 23 23 22 17 16 15 17 23 25 25 21 28 31 27 27
43 44 45 45 38 38 35 41 46 46 29 23 23 27 26 29 32 33 25 28 29 25 23 22 23 20 19 20 21 21 17 18 17 15 18 17 15 22 25 24 22 21 25 24 22
43 43 43 44 40 38 37 39 45 41 16 22 23 23 30 30 28 32 28 27 23 23 24 24 19 19 19 19 19 17 14 14 15 15 18 19 17 21 25 24 21 18 24 25 20
44 43 43 42 40 38 42 43 41 25 17 21 25 22 29 31 21 21 21 21 26 27 24 25 22 18 18 13 13 14 16 17 18 19 18 20 18 21 20 23 18 19 17 21 20
44 44 43 43 38 41 42 38 24 19 19 15 20 20 24 25 26 19 20 21 28 27 28 26 24 18 17 16 13 13 21 21 19 18 17 22 21 21 23 24 21 17 15 16 20
43 44 40 38 40 42 38 29 18 22 27 30 29 20 19 23 31 23 24 22 27 29 28 22 20 18 17 19 18 15 21 22 17 19 20 18 13 18 21 21 15 13 18 18 22
43 37 37 41 43 41 34 22 23 25 24 27 24 22 25 32 31 33 32 31 31 27 24 22 15 13 15 14 14 18 17 18 19 20 16 16 17 12 15 16 13 20 20 16 23
40 35 36 43 44 39 29 23 24 22 20 22 23 26 23 26 28 29 27 28 28 30 31 28 22 18 13 13 13 14 17 16 16 16 14 12 14 13 10 10 16 19 12 17 23
36 31 40 42 43 34 25 26 29 24 25 23 25 24 26 28 27 29 26 27 29 29 30 29 26 19 18 17 16 14 18 18 23 24 19 15 14 20 16 14 12 13 16 21 23
33 26 37 41 30 31 27 29 26 24 27 28 26 27 27 29 23 25 26 28 31 31 27 28 25 22 21 18 17 15 19 20 20 20 21 18 16 23 18 15 14 14 18 24 25
31 31 35 39 24 26 29 26 28 26 27 29 27 29 30 28 23 24 28 33 33 32 29 26 24 20 21 22 20 16 16 21 25 24 20 17 17 17 18 16 18 18 22 25 26
32 25 30 34 33 29 27 28 29 28 28 28 28 28 25 24 26 27 27 31 33 32 30 28 23 21 20 20 24 20 21 17 22 21 17 19 17 10 13 15 22 22 23 26 27
32 26 28 25 25 28 29 28 26 24 30 30 27 28 28 24 27 26 28 29 31 31 30 28 21 21 22 21 20 22 22 21 19 21 19 19 20 22 24 24 15 20 25 25 26
30 28 30 27 28 27 28 28 29 29 30 27 27 29 30 27 27 25 27 26 25 27 28 27 22 21 18 19 20 19 20 21 21 21 21 21 21 21 16 15 20 24 25 24 24
32 34 32 25 27 26 25 26 27 29 32 32 31 30 28 29 29 29 31 30 27 24 23 23 23 21 16 19 19 16 20 21 21 23 23 21 22 19 15 7 21 23 24 24 24
Wind_Speed
21 22 22 21 21 22 22 22 21 21 20 20 19 17 19 21 17 22 21 17 9 7 1 3 5 6 6 4 1 2 4 9 12 10 10 6 2 3 5 2 1 5 9 13 22
21 22 24 24 23 23 22 22 22 23 21 21 20 18 20 20 18 24 23 11 13 7 5 9 10 10 7 8 6 8 7 9 11 9 8 7 3 3 1 7 6 7 10 15 20
24 23 22 24 25 23 24 24 23 24 23 22 21 19 19 19 14 3 8 9 8 6 9 7 8 9 12 8 8 7 8 14 6 7 8 8 2 3 3 8 10 4 22 20 17
22 25 25 24 24 25 25 24 25 23 23 23 20 17 20 9 6 6 9 7 5 7 9 9 9 10 8 12 15 11 14 16 16 3 1 4 6 10 8 15 14 4 17 18 18
21 22 24 24 26 26 27 27 26 26 24 23 21 14 9 8 16 11 10 7 8 8 11 12 12 13 18 11 15 17 15 19 10 7 5 8 13 10 14 13 12 5 7 15 18
26 25 23 24 25 27 28 28 28 26 26 23 19 10 8 13 5 14 10 10 9 11 13 10 10 7 8 11 11 4 9 14 12 12 12 13 15 13 11 15 14 12 12 11 11
29 30 30 30 25 26 27 29 30 30 28 23 20 8 12 24 4 9 7 9 10 10 13 5 5 3 5 11 8 9 11 16 20 21 14 4 12 18 27 11 11 9 9 13 14
30 29 28 29 29 29 28 29 31 31 29 23 13 9 10 7 16 14 11 9 6 5 3 7 1 3 5 8 4 5 11 11 6 22 5 9 12 8 6 12 6 10 11 8 5
29 30 29 28 31 30 30 31 33 34 25 12 6 11 11 4 10 12 15 15 12 6 4 4 3 4 6 6 10 14 8 14 11 9 9 12 8 10 7 7 9 10 9 13 12
28 28 30 31 33 31 31 33 36 33 13 12 12 5 15 11 9 16 18 15 14 11 7 6 5 7 8 15 10 10 17 14 12 12 11 15 17 20 11 14 15 15 13 3 8
29 28 29 31 32 29 26 16 16 3 16 15 15 10 6 7 9 10 16 14 16 12 12 16 8 16 20 21 18 17 12 15 12 13 9 14 18 20 17 17 10 2 2 8 11
28 28 29 31 33 28 21 9 14 6 17 21 27 28 24 8 10 15 19 16 15 19 19 8 16 19 18 3 8 10 9 14 14 9 3 10 20 21 17 3 3 3 4 6 5
28 28 27 29 32 18 19 14 12 10 10 19 29 28 26 24 20 21 22 20 18 18 21 19 7 7 6 4 5 8 13 14 12 9 8 13 17 9 6 10 7 8 6 6 6
28 28 26 26 16 19 17 11 10 2 8 10 8 15 20 16 16 21 22 18 9 17 19 13 20 9 7 7 8 10 4 1 3 3 4 1 9 7 8 8 6 9 8 9 8
27 29 26 21 18 13 17 16 6 3 7 5 6 6 6 17 4 18 18 12 13 13 11 5 10 8 8 8 12 3 5 4 1 5 9 5 7 6 13 8 12 13 12 8 6
29 29 29 18 9 17 15 13 6 2 8 1 4 6 15 21 4 6 3 5 4 11 10 5 3 2 2 8 5 9 4 3 2 2 7 12 13 3 9 6 17 16 13 10 2
30 33 29 16 9 16 10 7 2 8 3 2 3 11 17 13 9 12 13 10 7 6 9 11 13 4 4 7 4 4 4 4 3 4 9 1 8 12 8 8 17 17 7 3 2
34 36 11 6 10 3 5 1 5 1 3 12 17 9 14 14 10 17 15 11 15 7 5 12 7 11 8 5 5 13 7 3 5 4 1 3 8 3 15 14 14 11 5 3 5
31 10 10 7 11 5 2 5 4 2 6 10 14 2 6 1 2 12 14 11 3 6 4 4 4 6 4 4 3 8 5 1 2 5 3 7 5 7 12 11 9 6 3 6 9
17 15 4 9 9 2 1 6 5 9 13 10 5 9 12 8 5 6 9 3 4 7 5 2 4 4 3 2 1 3 3 3 2 3 5 7 11 7 13 12 11 4 8 9 11
7 9 4 9 4 1 4 5 11 12 10 6 2 5 8 6 1 1 6 6 7 2 2 4 1 3 5 7 8 4 2 2 1 3 3 5 1 3 15 12 7 4 6 9 11
6 10 10 8 4 4 6 4 10 9 8 4 5 4 1 10 4 4 5 6 4 2 3 4 0 3 2 4 5 3 7 9 5 5 3 1 8 3 10 7 3 2 5 7 8
11 7 3 4 10 10 10 11 13 8 3 3 6 6 3 0 4 3 7 4 5 4 2 1 2 3 2 2 1 3 5 3 7 0 7 3 3 7 7 5 4 3 3 7 8
6 7 5 2 1 9 12 6 8 6 3 3 4 6 3 3 2 5 5 2 4 4 5 3 1 5 1 4 2 3 4 9 9 7 5 12 7 6 3 4 3 1 4 6 7
3 3 3 8 12 18 14 5 11 9 6 7 3 3 4 2 2 4 6 6 4 2 3 2 3 5 10 11 10 12 12 11 16 17 6 6 13 11 13 5 1 1 4 7 8
5 4 3 12 14 13 10 5 11 10 6 6 5 9 4 4 5 4 7 4 3 3 1 2 1 4 8 9 3 12 15 17 20 19 21 21 28 10 5 7 3 4 5 7 10
3 1 1 8 8 11 11 17 17 15 2 3 9 3 6 8 8 9 11 7 6 8 4 2 2 2 3 3 6 11 11 16 9 7 13 18 9 5 3 4 2 3 5 7 9
Wind_Direction
357 356 352 351 350 347 345 345 341 338 337 337 331 323 324 325 302 297 284 257 164 140 158 218 212 209 231 248 209 299 240 252 260 287 261 99 141 84 27 312 68 79 71 108 134
352 351 348 344 344 342 341 340 340 335 334 333 331 327 323 322 304 285 265 146 142 152 202 197 201 187 200 211 190 209 227 226 249 342 352 106 13 61 168 217 179 131 104 124 137
343 342 342 338 336 338 337 336 335 332 330 329 325 326 321 320 304 308 132 139 138 177 246 255 265 192 219 215 202 211 242 252 326 34 9 340 277 296 274 273 254 222 166 157 158
342 338 337 334 332 330 331 332 329 329 326 322 320 324 313 301 294 127 155 141 164 233 240 212 223 202 232 221 212 245 255 262 280 84 338 269 290 278 260 239 311 26 141 159 172
337 335 333 332 328 327 326 327 326 324 323 318 313 317 313 243 248 153 159 163 188 219 229 217 217 221 240 249 230 227 251 284 275 277 223 258 263 254 261 265 280 248 130 172 181
337 330 328 326 326 324 321 319 318 317 316 312 303 304 259 256 227 147 190 175 219 211 227 236 240 280 299 279 264 254 303 279 289 250 240 250 254 246 238 238 239 246 188 193 198
334 333 337 328 320 321 318 316 312 309 308 300 290 255 255 244 209 140 182 210 209 228 233 215 349 281 328 266 326 251 289 278 260 242 240 200 272 240 239 186 196 218 251 184 206
338 335 339 335 328 319 315 313 307 300 301 287 277 237 249 239 233 220 188 197 210 216 282 76 134 282 285 315 286 243 255 262 278 207 137 131 266 12 177 179 190 224 214 191 178
334 335 330 329 326 326 318 311 303 290 292 260 209 218 258 130 205 204 203 192 181 169 143 160 175 210 187 236 264 222 249 228 244 170 147 179 262 119 124 169 202 204 186 176 180
337 334 330 326 320 316 316 311 295 285 254 226 240 239 245 228 192 196 195 207 168 169 173 196 207 197 212 222 218 213 214 248 251 189 195 198 241 267 217 193 211 219 224 64 139
335 336 336 337 330 317 318 321 328 290 222 202 195 218 133 112 128 197 180 191 192 184 207 190 203 204 222 220 232 276 300 300 318 149 184 224 252 262 261 262 248 247 175 108 112
338 336 333 331 328 313 307 284 316 314 294 281 259 250 261 196 189 195 173 182 196 206 218 188 232 238 248 332 217 249 279 278 287 117 176 269 267 266 261 228 88 55 51 112 133
336 336 332 333 320 309 332 337 9 22 274 275 244 243 243 233 222 198 182 199 190 218 228 215 215 143 189 161 210 243 248 264 278 349 280 257 287 269 76 97 94 77 110 113 130
335 335 329 332 318 342 314 16 4 352 288 274 232 243 228 200 229 234 180 193 235 230 229 225 240 174 175 209 200 236 19 336 337 318 260 163 288 279 174 153 185 133 129 139 129
334 329 327 321 291 295 309 323 335 38 264 7 119 330 222 180 111 194 177 198 227 219 200 205 152 174 212 236 187 148 73 69 336 287 309 253 229 266 155 187 170 153 143 143 134
329 326 321 314 299 286 335 318 320 229 263 105 116 178 158 201 121 93 137 36 299 231 228 220 64 186 186 82 60 116 87 182 284 294 262 220 194 273 172 192 142 131 129 107 117
329 322 318 298 302 320 338 2 244 235 302 299 220 175 184 195 189 164 183 188 175 166 208 234 200 108 118 126 111 168 134 165 225 202 239 102 177 269 160 110 140 136 109 35 161
329 315 321 331 311 23 31 18 256 312 278 338 319 178 197 185 191 183 163 184 237 286 172 189 180 152 175 224 195 186 179 214 242 195 86 217 228 191 113 110 109 106 112 22 329
327 332 320 356 330 112 52 256 280 299 5 344 337 190 233 214 235 190 178 176 200 188 215 221 124 65 69 57 11 145 201 15 313 234 254 222 171 112 122 123 143 129 33 352 330
324 325 307 360 336 188 279 277 296 349 342 340 340 3 333 238 224 171 162 72 107 31 348 25 121 146 108 104 10 28 126 126 197 244 238 253 216 165 168 151 129 15 351 333 326
308 325 11 339 280 130 262 291 314 346 356 342 15 301 291 322 330 154 78 77 56 12 344 84 316 100 139 199 180 154 201 201 267 236 252 306 252 334 142 126 104 350 307 309 325
298 317 13 358 6 271 272 252 300 317 7 344 303 254 264 323 329 89 95 74 39 66 139 71 298 207 128 37 9 317 196 171 206 202 233 278 279 91 130 129 119 303 293 313 317
310 293 337 331 8 352 309 308 303 305 339 18 4 350 346 250 330 86 85 63 43 45 56 80 212 197 234 29 2 247 231 161 111 38 223 235 254 181 191 210 193 318 304 324 323
311 323 316 27 257 316 335 331 333 349 354 340 310 294 267 300 39 116 107 100 82 55 46 45 291 251 313 33 112 217 258 197 169 209 235 223 241 203 196 206 199 297 347 337 337
286 323 347 317 325 325 323 294 319 346 9 9 324 312 342 17 47 98 87 112 100 58 60 69 255 269 284 285 271 242 229 234 219 223 256 289 301 301 314 311 360 10 2 343 344
310 340 340 293 288 314 309 3 348 355 353 354 1 359 49 44 33 100 127 159 157 114 80 49 254 345 295 271 280 264 252 235 233 241 255 270 278 302 94 106 91 60 1 347 345
0 330 316 289 303 316 350 335 321 322 37 339 325 340 86 57 47 66 70 70 121 147 150 198 300 301 276 62 329 286 254 237 231 212 229 252 265 16 48 94 65 33 5 345 335